Regional Weather Roundup
Issued by NWS

Home | Current Version | Previous Version | Text Only | Print | Product List | Glossary On
Versions: 1 2 3 4 5 6 7 8 9 10 11 12 13 14 15 16 17 18 19 20 21 22 23 24 25 26 27 28 29 30 31 32 33 34 35 36 37 38 39 40 41 42 43 44 45 46 47 48 49 50
043
ASUS43 KTOP 241159
RWRKS

WEATHER ROUNDUP FOR KANSAS
NATIONAL WEATHER SERVICE GOODLAND KS
600 AM CST FRI NOV 24 2017

NOTE:  "FAIR" INDICATES FEW OR NO CLOUDS BELOW 12,000 FEET WITH NO
SIGNIFICANT WEATHER AND/OR OBSTRUCTIONS TO VISIBILITY.

KSZ001>006-013>018-027>032-041>047-241300-
NORTHWEST KANSAS

CITY           SKY/WX    TMP DP  RH WIND       PRES   REMARKS
GOODLAND       CLOUDY    44  32  62 W8        29.76R
6HR MIN TEMP:  43; 6HR MAX TEMP:  55;

HAYS           CLOUDY    49  38  65 W7        29.71F
HILL CITY      PTCLDY    46  37  71 W7        29.70F
6HR MIN TEMP:  46; 6HR MAX TEMP:  56;

RUSSELL        PTCLDY    46  39  76 SW9       29.69F
6HR MIN TEMP:  44; 6HR MAX TEMP:  52;

$$

KSZ061>065-074>080-084>089-241300-
SOUTHWEST KANSAS

CITY           SKY/WX    TMP DP  RH WIND       PRES   REMARKS
DODGE CITY     CLEAR     46  33  60 SW10      29.75F
6HR MIN TEMP:  43; 6HR MAX TEMP:  55;

GARDEN CITY    CLOUDY    38  32  79 W8        29.75F
6HR MIN TEMP:  37; 6HR MAX TEMP:  49;

GREAT BEND     CLOUDY    43  37  79 SW8       29.72F
LIBERAL        CLOUDY    35  31  85 SW8       29.78F
$$

KSZ066>073-081>083-090>101-241300-
SOUTHEAST KANSAS

CITY           SKY/WX    TMP DP  RH WIND       PRES   REMARKS
CHANUTE        PTCLDY    47  32  56 S12       29.82F
6HR MIN TEMP:  46; 6HR MAX TEMP:  50;

COFFEYVILLE    PTCLDY    43  33  68 S7        29.84F
6HR MIN TEMP:  42; 6HR MAX TEMP:  47;

HUTCHINSON     CLEAR     44  36  73 S6        29.73F
6HR MIN TEMP:  41; 6HR MAX TEMP:  49;

MEDICINE LODGE   N/A     38  33  82 CALM      29.76F
NEWTON         PTCLDY    51  35  54 S17       29.75F
PARSONS        PTCLDY    45  32  60 S5        29.84F
6HR MIN TEMP:  45; 6HR MAX TEMP:  49;

WICHITA INTL   CLOUDY    44  36  73 S9        29.77F
6HR MIN TEMP:  43; 6HR MAX TEMP:  47;

WICHITA JABRA  CLOUDY    48  36  63 S10       29.76F
6HR MIN TEMP:  48; 6HR MAX TEMP:  53;

WICHITA MCCONL CLOUDY    45  34  65 SW10      29.77F
WINFIELD       CLOUDY    45  36  70 S7        29.81F
6HR MIN TEMP:  44; 6HR MAX TEMP:  49;

$$

KSZ007>012-019>026-033>040-048>060-102>105-241300-
NORTHEAST KANSAS

CITY           SKY/WX    TMP DP  RH WIND       PRES   REMARKS
CONCORDIA      CLOUDY    52  39  61 SW13G20   29.65F
6HR MIN TEMP:  52; 6HR MAX TEMP:  56;

EMPORIA        PTCLDY    47  34  60 S13       29.75F
6HR MIN TEMP:  46; 6HR MAX TEMP:  50;

LAWRENCE       PTCLDY    49  34  56 SE8       29.74F
6HR MIN TEMP:  43; 6HR MAX TEMP:  50;

MANHATTAN      PTCLDY    53  37  54 SW12      29.69F
6HR MIN TEMP:  50; 6HR MAX TEMP:  55;

OLATHE IND     PTCLDY    46  34  62 S10       29.76F
6HR MIN TEMP:  43; 6HR MAX TEMP:  47;

OLATHE EXE     PTCLDY    47  33  58 S10       29.75F
6HR MIN TEMP:  46; 6HR MAX TEMP:  49;

SALINA         CLOUDY    48  38  68 S8        29.70F
6HR MIN TEMP:  47; 6HR MAX TEMP:  52;

TOPEKA BILLARD PTCLDY    50  36  58 S7        29.72F
6HR MIN TEMP:  50; 6HR MAX TEMP:  55;

TOPEKA FORBES  PTCLDY    51  35  54 S14       29.72F
6HR MIN TEMP:  50; 6HR MAX TEMP:  54;

$$




USA.gov is the U.S. government's official web portal to all federal, state and local government web resources and services.